Flag for Sweden Weather past 2 weeks in Västerås, Sweden

Now
16 °F

Cold.


Feels Like: 3 °F
Forecast: 9 / 17 °F
Wind: 10 mph from Southwest

Location: Vasteras / Hasslo

Current Time: Dec 26, 2014 at 9:48:58 AM

Latest Report: Dec 26, 2014 at 9:20 AM


Visibility: N/A

Pressure: 30.09 "Hg

Humidity: 62%

Dew point: 5 °F

Location of VästeråsLocation

Historic Weather in Västerås — Graph

°F

Västerås temperature yesterday

Maximum temperature yesterday: 23 °F (at 12:20 AM)
Minimum temperature yesterday: 9 °F (at 7:50 PM)
Average temperature yesterday: 14 °F

Past Weeks' High & Low Weather Summary

 TemperatureHumidityPressure
High41 °F (Dec 11, 2:20 PM)100% (Dec 12, 11:20 PM)30.12 "Hg (Dec 12, 11:20 PM)
Low9 °F (Dec 25, 7:50 PM)64% (Dec 21, 11:50 AM)28.88 "Hg (Dec 13, 12:20 AM)
Average31 °F87%29.40 "Hg
* Reported Dec 11 8:20 AM — Dec 26 8:20 AM, Västerås, Weather by CustomWeather, © 2014

Note: Actual official high and low records may vary slightly from our data, if they occured in-between our weather recording intervals... More about our weather records

Advertising

Västerås weather history for previous 24 hours

 ConditionsComfort  
Time TempWeatherWind HumidityBarometerVisibility
8:20 AM
Dec 26
14 °FCold.10 mph67%30.09 "HgN/A
7:50 AM14 °FCold.10 mph67%30.09 "HgN/A
7:20 AM14 °FCold.10 mph67%30.09 "HgN/A
6:50 AM14 °FCold.8 mph67%30.09 "HgN/A
6:20 AM14 °FCold.13 mph67%30.09 "HgN/A
5:50 AM14 °FCold.12 mph67%30.09 "HgN/A
5:20 AM12 °FCold.10 mph73%30.09 "HgN/A
4:50 AM12 °FCold.12 mph73%30.12 "HgN/A
3:50 AM12 °FCold.10 mph73%30.12 "HgN/A
3:20 AM12 °FCold.7 mph73%30.12 "HgN/A
2:50 AM12 °FCold.12 mph73%30.12 "HgN/A
2:20 AM12 °FCold.9 mph73%30.12 "HgN/A
1:50 AM12 °FCold.7 mph73%30.12 "HgN/A
1:20 AM12 °FCold.10 mph73%30.12 "HgN/A
12:50 AM12 °FCold.8 mph73%30.12 "HgN/A
12:20 AM12 °FCold.9 mph73%30.12 "HgN/A
11:50 PM
Dec 25
10 °FCold.9 mph79%30.12 "HgN/A
11:20 PM10 °FCold.3 mph79%30.12 "HgN/A
10:50 PM10 °FCold.5 mph79%30.12 "HgN/A
10:20 PM12 °FCold.6 mph79%30.12 "HgN/A
9:50 PM10 °FCold.5 mph85%30.12 "HgN/A
9:20 PM10 °FCold.5 mph79%30.12 "HgN/A
8:50 PM10 °FCold.5 mph79%30.12 "HgN/A
8:20 PM10 °FCold.3 mph79%30.12 "HgN/A
7:50 PM9 °FFrigid.3 mph85%30.12 "HgN/A
7:20 PM10 °FCold.5 mph85%30.12 "HgN/A
6:50 PM10 °FCold.5 mph85%30.09 "HgN/A
6:20 PM10 °FCold.2 mph85%30.12 "HgN/A
5:50 PM10 °FCold.6 mph85%30.09 "HgN/A
5:20 PM10 °FClear.2 mph85%30.09 "Hg10 mi
4:20 PM12 °FClear.2 mph79%30.09 "Hg10 mi
3:50 PM14 °FCold.3 mph79%30.09 "HgN/A
3:20 PM12 °FCold.2 mph79%30.09 "HgN/A
2:50 PM14 °FCold.3 mph73%30.09 "HgN/A
2:20 PM16 °FCold.7 mph73%30.07 "HgN/A
1:50 PM16 °FCold.3 mph73%30.07 "HgN/A
1:20 PM16 °FCold.5 mph73%30.07 "HgN/A
12:50 PM16 °FCold.5 mph73%30.07 "HgN/A
12:20 PM16 °FCold.5 mph67%30.07 "HgN/A
11:50 AM14 °FCold.6 mph73%30.07 "HgN/A
11:20 AM14 °FCold.8 mph73%30.04 "HgN/A
10:50 AM14 °FCold.8 mph73%30.04 "HgN/A
10:20 AM12 °FCold.9 mph79%30.01 "HgN/A
9:50 AM12 °FCold.7 mph79%30.01 "HgN/A
9:20 AM12 °FCold.9 mph79%30.01 "HgN/A
Weather by CustomWeather, © 2014

See weather overviewHow to use our weather pages